Location: Unspecified
(0.0000°N, 0.0000°E)
Time: 08:13:00
(UTC+00:00)

Vanguard 2 - Pass Details

Date: 29 October 2021
Orbit: 554 x 2936 km, 32.9° (Epoch: 06 December)

Event Time Altitude Azimuth Distance (km) Brightness Sun altitude
Rises 20:23:47 0° 240° (WSW) 6,010 13.0 -38.7°
Reaches altitude 10° 20:27:22 10° 241° (WSW) 5,227 12.4 -39.5°
Maximum altitude 20:44:00 74° 324° (NW) 3,009 10.2 -43.5°
Enters shadow 20:46:22 69° 7° (N) 3,078 10.2 -44.0°
Drops below altitude 10° 21:01:12 10° 48° (NE) 5,362 - -47.5°
Sets 21:04:58 0° 50° (NE) 6,163 - -48.4°
